Back to catalog

STARLINK-6358

AliveCommunicationsVLEO
NORAD 57377·PAYLOAD·🇺🇸 United States

Launched Jul 16, 2023 from Cape Canaveral Space Force Station

Loading…

Next Passes (next 24 hours)

TLE

FreshSource: CelesTrak SupGP

Epoch: Sep 14, 2026, 22:10 UTC

1 57377C 23099BB  26257.92409722  .00027721  00000+0  10042-2 0  2573
2 57377  43.0000 256.6861 0000883 251.2499 228.9709 15.27559827    12

Track STARLINK-6358 in real time with AllMySat

Download on the App Store